805  
FPUS82 KCHS 241427  
OPUCHS  
 
TEST   
..KCHS/KSAV GATEWAY OBSERVATIONS
 
TEST  
NATIONAL WEATHER SERVICE CHARLESTON SC  
900 AM EST MON FEB 24 2020  
 
NOTE: "FAIR" INDICATES FEW OR NO CLOUDS BELOW 12,000 FEET WITH NO  
SIGNIFICANT WEATHER AND/OR OBSTRUCTIONS TO VISIBILITY.  
 
SCZ050-WAZ558-NCZ071-TXZ119-213-PAZ071-DCZ001-FLZ074-172-MI076-  
NYZ176-178-MAZ016-IL014-TNZ027-NJZ106-GAZ044-MD014-241500-  
   
..GATEWAY OBSERVATIONS FOR CHARLESTON INTERNATIONAL
 
 
 
CITY SKY/WX TMP DP RH WIND PRES REMARKS  
CHAS AIRPORT PTSUNNY 58 44 60 CALM 30.12R  
SEATTLE MOCLDY 40 32 73 S12 30.51R WCI 33  
CHARLOTTE CLOUDY 50 32 50 S6 30.12R  
DALLAS DFW FAIR 52 41 66 W13 29.78R  
DALLAS LOVE FAIR 54 40 59 W13 29.79R  
PHILLADELPHIA FAIR 41 32 70 CALM 30.09R  
WASH NATIONAL CLOUDY 41 29 62 NE5 30.08S  
BALTIMORE PTSUNNY 41 28 60 CALM 30.08R  
MIAMI PTSUNNY 75 53 46 SE14 30.12R  
DETROIT CLOUDY 36 32 85 S9 29.95R WCI 29  
NEWARK FAIR 43 31 62 S3 30.07S  
LAGUARDIA FAIR 47 30 51 S5 30.06S  
J F K FAIR 44 38 79 VRB6 30.09R  
BOSTON LOGAN FAIR 47 22 37 SW7 30.05F  
FT. LAUDERDALE PTSUNNY 74 57 55 E15 30.11R  
CHICAGO O'HARE CLOUDY 38 26 62 NE7 29.93R WCI 33  
CHICAGO MIDWAY CLOUDY 39 27 62 NE8 29.94R WCI 33  
HOUSTON BUSH CLOUDY 63 61 93 CALM 29.84S  
HOUSTON HOBBY HVY RAIN 66 64 93 SW13 29.84R FOG  
NASHVILLE LGT RAIN 45 40 82 SE12 29.96F  
ATLANTA LGT RAIN 46 41 82 E10 30.08R  
LONDON HEATHRW CLOUDY 52 48 87 SW22 29.68F  
 

 
 
GAZ044-118-TXZ119-213-NCZ071-DCZ001-MDZ014-506-PAZ021-071-NJZ106-  
NYZ176-178-MAZ106-OHZ011-021-055-MIZ076-KYZ091-ILZ014-INZ047-  
MNZ060-ONZ431-241500-  
   
..GATEWAY OBSERVATIONS FOR SAVANNAH INTERNATIONAL
 
 
 
CITY SKY/WX TMP DP RH WIND PRES REMARKS  
SAVANNAH ARPT CLOUDY 57 49 74 E3 30.11S  
ATLANTA LGT RAIN 46 41 82 E10 30.08R  
CHARLOTTE CLOUDY 50 32 50 S6 30.12R  
DALLAS DFW FAIR 52 41 66 W13 29.78R  
HOUSTON BUSH CLOUDY 63 61 93 CALM 29.84S  
WASH NATIONAL CLOUDY 41 29 62 NE5 30.08S  
WASH DULLES PTSUNNY 40 26 57 CALM 30.07S  
BALTIMORE PTSUNNY 41 28 60 CALM 30.08R  
PHILADELPHIA FAIR 41 32 70 CALM 30.09R  
NEWARK FAIR 43 31 62 S3 30.07S  
LAGUARDIA FAIR 47 30 51 S5 30.06S  
J F K FAIR 44 38 79 VRB6 30.09R  
BOSTON FAIR 47 22 37 SW7 30.05F  
PITTSBURG CLOUDY 42 24 49 VRB3 29.99F  
AKRON FAIR 39 27 62 S8 29.99R WCI 33  
CLEVELAND FAIR 43 28 55 S9 29.99R  
CINCINNATI LGT RAIN 41 38 89 S8 29.99S  
COLUMBUS PTSUNNY 41 30 65 S7 30.01R  
DETROIT CLOUDY 36 32 85 S9 29.95R WCI 29  
CHICAGO O'HARE CLOUDY 38 26 62 NE7 29.93R WCI 33  
MINNEAPOLIS FAIR 26 21 81 N3 30.00R  
INDIANAPOLIS LGT RAIN 41 41 100 SE5 29.94R FOG  
TORONTO CANADA MOSUNNY 39 32 75 SW7 29.91R WCI 34  
 

 
 
 
CLICK HERE TO GO TO PREVIOUS BULLETINS.

The Nexlab SC Page
The Nexlab GA Page Main Text Page